This demonstration page uses our WeatherBlox Daily Observations layout. Learn more.

Left ArrowRight Arrow

41.55636, -103.73856

Hourly Observations for February 6, 2016

Temp ( °F °C ) Dew Point ( °F °C ) Humidity (%) Winds ( mph kmh ) Pressure ( in mb ) Visibility ( mi km ) Precip ( " mm )
12:53 am 00:53 Clear 15 -9.4 9 -12.8 77 77 N N/A 30.33 1027 10 16.0934 N/A
1:53 am 01:53 Clear 20 -6.7 13 -10.6 74 74 NNW 7 11 30.31 1026 10 16.0934 N/A
2:53 am 02:53 Clear 16 -8.9 10 -12.2 77 77 NW 8 13 30.3 1026 10 16.0934 N/A
3:53 am 03:53 Clear 17 -8.3 11 -11.7 77 77 NNW 9 15 30.29 1026 10 16.0934 N/A
4:53 am 04:53 Clear 21 -6.1 13 -10.6 71 71 NNW 9 15 30.28 1025 10 16.0934 N/A
5:53 am 05:53 Clear 23 -5 15 -9.4 72 72 NW 10 17 30.27 1025 10 16.0934 N/A
6:53 am 06:53 Clear 24 -4.4 16 -8.9 71 71 N N/A 30.28 1025 10 16.0934 N/A
7:53 am 07:53 Sunny 27 -2.8 17 -8.3 66 66 N N/A 30.29 1026 10 16.0934 N/A
8:53 am 08:53 Sunny 28 -2.2 18 -7.8 66 66 NNW 6 9 30.28 1026 10 16.0934 N/A
9:53 am 09:53 Sunny 33 0.6 19 -7.2 56 56 N N/A 30.26 1025 10 16.0934 N/A
10:53 am 10:53 Sunny 39 3.9 23 -5 53 53 WNW 22 35 30.23 1024 10 16.0934 N/A
11:53 am 11:53 Mostly Sunny 41 5 24 -4.4 51 51 WNW 22 35 30.16 1021 10 16.0934 N/A
12:53 pm 12:53 Sunny 41 5 24 -4.4 51 51 W 24 39 30.14 1021 10 16.0934 N/A
1:53 pm 13:53 Sunny 41 5 26 -3.3 55 55 WNW 23 37 30.11 1020 10 16.0934 N/A
2:53 pm 14:53 Sunny 43 6.1 25 -3.9 49 49 WNW 15 24 30.09 1019 10 16.0934 N/A
3:53 pm 15:53 Sunny 42 5.6 24 -4.4 49 49 WNW 22 35 30.08 1019 10 16.0934 N/A
4:53 pm 16:53 Sunny 40 4.4 25 -3.9 55 55 W 22 35 30.07 1018 10 16.0934 N/A
5:53 pm 17:53 Clear 40 4.4 24 -4.4 53 53 W 23 37 30.06 1018 10 16.0934 N/A
6:53 pm 18:53 Clear 41 5 23 -5 49 49 WNW 22 35 30.07 1018 10 16.0934 N/A
7:53 pm 19:53 Clear 40 4.4 25 -3.9 55 55 NW 23 37 30.09 1019 10 16.0934 N/A
8:53 pm 20:53 Clear 38 3.3 25 -3.9 60 60 NW 23 37 30.15 1021 10 16.0934 N/A
9:53 pm 21:53 Clear 35 1.7 24 -4.4 64 64 NW 13 20 30.18 1022 10 16.0934 N/A
10:53 pm 22:53 Clear 32 undefined 23 -5 69 69 WNW 10 17 30.17 1022 10 16.0934 N/A
11:53 pm 23:53 Clear 32 undefined 22 -5.6 66 66 WNW 10 17 30.18 1022 10 16.0934 N/A

Powered by AerisWeather